Year,Month,Day,Hour,Minute,Value (Times are PST for temperature in C)
2008,07,12,00,00,12.80
2008,07,12,00,01,12.70
2008,07,12,00,02,12.70
2008,07,12,00,03,12.70
2008,07,12,00,04,12.70
2008,07,12,00,05,12.60
2008,07,12,00,06,12.60
2008,07,12,00,07,12.60
2008,07,12,00,08,12.60
2008,07,12,00,09,12.50
2008,07,12,00,10,12.50
2008,07,12,00,11,12.50
2008,07,12,00,12,12.40
2008,07,12,00,13,12.40
2008,07,12,00,14,12.40
2008,07,12,00,15,12.40
2008,07,12,00,16,12.40
2008,07,12,00,17,12.40
2008,07,12,00,18,12.30
2008,07,12,00,19,12.30
2008,07,12,00,20,12.30
2008,07,12,00,21,12.30
2008,07,12,00,22,12.30
2008,07,12,00,23,12.30
2008,07,12,00,24,12.30
2008,07,12,00,25,12.20
2008,07,12,00,26,12.20
2008,07,12,00,27,12.20
2008,07,12,00,28,12.20
2008,07,12,00,29,12.20
2008,07,12,00,30,12.20
2008,07,12,00,31,12.20
2008,07,12,00,32,12.10
2008,07,12,00,33,12.10
2008,07,12,00,34,12.10
2008,07,12,00,35,12.10
2008,07,12,00,36,12.10
2008,07,12,00,37,12.10
2008,07,12,00,38,12.10
2008,07,12,00,39,12.10
2008,07,12,00,40,12.10
2008,07,12,00,41,12.00
2008,07,12,00,42,12.00
2008,07,12,00,43,12.00
2008,07,12,00,44,12.00
2008,07,12,00,45,12.00
2008,07,12,00,46,12.00
2008,07,12,00,47,12.00
2008,07,12,00,48,12.00
2008,07,12,00,49,12.00
2008,07,12,00,50,12.00
2008,07,12,00,51,12.00
2008,07,12,00,52,12.00
2008,07,12,00,53,12.00
2008,07,12,00,54,12.00
2008,07,12,00,55,12.10
2008,07,12,00,56,12.10
2008,07,12,00,57,12.20
2008,07,12,00,58,12.30
2008,07,12,00,59,12.30
2008,07,12,01,00,12.30
2008,07,12,01,01,12.30
2008,07,12,01,02,12.30
2008,07,12,01,03,12.20
2008,07,12,01,04,12.20
2008,07,12,01,05,12.20
2008,07,12,01,06,12.10
2008,07,12,01,07,12.10
2008,07,12,01,08,12.00
2008,07,12,01,09,12.00
2008,07,12,01,10,11.90
2008,07,12,01,11,11.90
2008,07,12,01,12,11.90
2008,07,12,01,13,11.80
2008,07,12,01,14,11.80
2008,07,12,01,15,11.80
2008,07,12,01,16,11.80
2008,07,12,01,17,11.70
2008,07,12,01,18,11.70
2008,07,12,01,19,11.70
2008,07,12,01,20,11.70
2008,07,12,01,21,11.70
2008,07,12,01,22,11.70
2008,07,12,01,23,11.70
2008,07,12,01,24,11.70
2008,07,12,01,25,11.70
2008,07,12,01,26,11.70
2008,07,12,01,27,11.70
2008,07,12,01,28,11.60
2008,07,12,01,29,11.60
2008,07,12,01,30,11.60
2008,07,12,01,31,11.60
2008,07,12,01,32,11.60
2008,07,12,01,33,11.60
2008,07,12,01,34,11.50
2008,07,12,01,35,11.50
2008,07,12,01,36,11.50
2008,07,12,01,37,11.50
2008,07,12,01,38,11.50
2008,07,12,01,39,11.50
2008,07,12,01,40,11.50
2008,07,12,01,41,11.50
2008,07,12,01,42,11.50
2008,07,12,01,43,11.50
2008,07,12,01,44,11.50
2008,07,12,01,45,11.50
2008,07,12,01,46,11.50
2008,07,12,01,47,11.60
2008,07,12,01,48,11.60
2008,07,12,01,49,11.50
2008,07,12,01,50,11.50
2008,07,12,01,51,11.50
2008,07,12,01,52,11.50
2008,07,12,01,53,11.50
2008,07,12,01,54,11.50
2008,07,12,01,55,11.40
2008,07,12,01,56,11.40
2008,07,12,01,57,11.40
2008,07,12,01,58,11.40
2008,07,12,01,59,11.40
2008,07,12,02,00,11.40
2008,07,12,02,01,11.40
2008,07,12,02,02,11.40
2008,07,12,02,03,11.40
2008,07,12,02,04,11.30
2008,07,12,02,05,11.40
2008,07,12,02,06,11.30
2008,07,12,02,07,11.30
2008,07,12,02,08,11.30
2008,07,12,02,09,11.30
2008,07,12,02,10,11.30
2008,07,12,02,11,11.30
2008,07,12,02,12,11.30
2008,07,12,02,13,11.30
2008,07,12,02,14,11.30
2008,07,12,02,15,11.30
2008,07,12,02,16,11.30
2008,07,12,02,17,11.30
2008,07,12,02,18,11.30
2008,07,12,02,19,11.30
2008,07,12,02,20,11.30
2008,07,12,02,21,11.30
2008,07,12,02,22,11.20
2008,07,12,02,23,11.20
2008,07,12,02,24,11.20
2008,07,12,02,25,11.20
2008,07,12,02,26,11.20
2008,07,12,02,27,11.20
2008,07,12,02,28,11.20
2008,07,12,02,29,11.20
2008,07,12,02,30,11.20
2008,07,12,02,31,11.20
2008,07,12,02,32,11.20
2008,07,12,02,33,11.20
2008,07,12,02,34,11.20
2008,07,12,02,35,11.20
2008,07,12,02,36,11.20
2008,07,12,02,37,11.20
2008,07,12,02,38,11.20
2008,07,12,02,39,11.10
2008,07,12,02,40,11.10
2008,07,12,02,41,11.10
2008,07,12,02,42,11.10
2008,07,12,02,43,11.10
2008,07,12,02,44,11.10
2008,07,12,02,45,11.10
2008,07,12,02,46,11.10
2008,07,12,02,47,11.10
2008,07,12,02,48,11.10
2008,07,12,02,49,11.10
2008,07,12,02,50,11.10
2008,07,12,02,51,11.10
2008,07,12,02,52,11.10
2008,07,12,02,53,11.10
2008,07,12,02,54,11.10
2008,07,12,02,55,11.10
2008,07,12,02,56,11.20
2008,07,12,02,57,11.20
2008,07,12,02,58,11.20
2008,07,12,02,59,11.20
2008,07,12,03,00,11.20
2008,07,12,03,01,11.20
2008,07,12,03,02,11.20
2008,07,12,03,03,11.20
2008,07,12,03,04,11.20
2008,07,12,03,05,11.20
2008,07,12,03,06,11.10
2008,07,12,03,07,11.10
2008,07,12,03,08,11.10
2008,07,12,03,09,11.10
2008,07,12,03,10,11.10
2008,07,12,03,11,11.10
2008,07,12,03,12,11.10
2008,07,12,03,13,11.00
2008,07,12,03,14,11.00
2008,07,12,03,15,11.00
2008,07,12,03,16,11.00
2008,07,12,03,17,11.00
2008,07,12,03,18,11.00
2008,07,12,03,19,11.00
2008,07,12,03,20,11.00
2008,07,12,03,21,11.00
2008,07,12,03,22,11.00
2008,07,12,03,23,11.00
2008,07,12,03,24,11.00
2008,07,12,03,25,11.10
2008,07,12,03,26,11.10
2008,07,12,03,27,11.10
2008,07,12,03,28,11.10
2008,07,12,03,29,11.10
2008,07,12,03,30,11.20
2008,07,12,03,31,11.20
2008,07,12,03,32,11.30
2008,07,12,03,33,11.40
2008,07,12,03,34,11.50
2008,07,12,03,35,11.60
2008,07,12,03,36,11.60
2008,07,12,03,37,11.60
2008,07,12,03,38,11.60
2008,07,12,03,39,11.50
2008,07,12,03,40,11.50
2008,07,12,03,41,11.50
2008,07,12,03,42,11.40
2008,07,12,03,43,11.40
2008,07,12,03,44,11.30
2008,07,12,03,45,11.30
2008,07,12,03,46,11.30
2008,07,12,03,47,11.30
2008,07,12,03,48,11.20
2008,07,12,03,49,11.20
2008,07,12,03,50,11.20
2008,07,12,03,51,11.10
2008,07,12,03,52,11.10
2008,07,12,03,53,11.10
2008,07,12,03,54,11.10
2008,07,12,03,55,11.00
2008,07,12,03,56,11.00
2008,07,12,03,57,11.00
2008,07,12,03,58,10.90
2008,07,12,03,59,10.90
2008,07,12,04,00,10.90
2008,07,12,04,01,10.90
2008,07,12,04,02,10.90
2008,07,12,04,03,10.90
2008,07,12,04,04,11.00
2008,07,12,04,05,11.00
2008,07,12,04,06,11.00
2008,07,12,04,07,11.00
2008,07,12,04,08,11.00
2008,07,12,04,09,10.90
2008,07,12,04,10,10.90
2008,07,12,04,11,10.90
2008,07,12,04,12,10.90
2008,07,12,04,13,10.90
2008,07,12,04,14,10.90
2008,07,12,04,15,10.90
2008,07,12,04,16,10.80
2008,07,12,04,17,10.80
2008,07,12,04,18,10.80
2008,07,12,04,19,10.80
2008,07,12,04,20,10.80
2008,07,12,04,21,10.80
2008,07,12,04,22,10.80
2008,07,12,04,23,10.80
2008,07,12,04,24,10.80
2008,07,12,04,25,10.80
2008,07,12,04,26,10.80
2008,07,12,04,27,10.80
2008,07,12,04,28,10.80
2008,07,12,04,29,10.80
2008,07,12,04,30,10.80
2008,07,12,04,31,10.80
2008,07,12,04,32,10.80
2008,07,12,04,33,10.80
2008,07,12,04,34,10.80
2008,07,12,04,35,10.80
2008,07,12,04,36,10.80
2008,07,12,04,37,10.70
2008,07,12,04,38,10.70
2008,07,12,04,39,10.70
2008,07,12,04,40,10.70
2008,07,12,04,41,10.70
2008,07,12,04,42,10.70
2008,07,12,04,43,10.70
2008,07,12,04,44,10.70
2008,07,12,04,45,10.70
2008,07,12,04,46,10.70
2008,07,12,04,47,10.60
2008,07,12,04,48,10.60
2008,07,12,04,49,10.60
2008,07,12,04,50,10.60
2008,07,12,04,51,10.60
2008,07,12,04,52,10.60
2008,07,12,04,53,10.60
2008,07,12,04,54,10.60
2008,07,12,04,55,10.60
2008,07,12,04,56,10.60
2008,07,12,04,57,10.60
2008,07,12,04,58,10.60
2008,07,12,04,59,10.60
2008,07,12,05,00,10.70
2008,07,12,05,01,10.70
2008,07,12,05,02,10.70
2008,07,12,05,03,10.70
2008,07,12,05,04,10.60
2008,07,12,05,05,10.60
2008,07,12,05,06,10.60
2008,07,12,05,07,10.60
2008,07,12,05,08,10.70
2008,07,12,05,09,10.70
2008,07,12,05,10,10.70
2008,07,12,05,11,10.70
2008,07,12,05,12,10.70
2008,07,12,05,13,10.70
2008,07,12,05,14,10.70
2008,07,12,05,15,10.70
2008,07,12,05,16,10.70
2008,07,12,05,17,10.70
2008,07,12,05,18,10.70
2008,07,12,05,19,10.80
2008,07,12,05,20,10.80
2008,07,12,05,21,10.80
2008,07,12,05,22,10.80
2008,07,12,05,23,10.80
2008,07,12,05,24,10.80
2008,07,12,05,25,10.80
2008,07,12,05,26,10.80
2008,07,12,05,27,10.80
2008,07,12,05,28,10.80
2008,07,12,05,29,10.80
2008,07,12,05,30,10.80
2008,07,12,05,31,10.80
2008,07,12,05,32,10.80
2008,07,12,05,33,10.80
2008,07,12,05,34,10.80
2008,07,12,05,35,10.80
2008,07,12,05,36,10.80
2008,07,12,05,37,10.80
2008,07,12,05,38,10.80
2008,07,12,05,39,10.90
2008,07,12,05,40,10.90
2008,07,12,05,41,10.90
2008,07,12,05,42,10.90
2008,07,12,05,43,10.90
2008,07,12,05,44,10.90
2008,07,12,05,45,10.90
2008,07,12,05,46,10.90
2008,07,12,05,47,10.90
2008,07,12,05,48,10.90
2008,07,12,05,49,10.90
2008,07,12,05,50,10.80
2008,07,12,05,51,10.80
2008,07,12,05,52,10.80
2008,07,12,05,53,10.80
2008,07,12,05,54,10.80
2008,07,12,05,55,10.90
2008,07,12,05,56,10.90
2008,07,12,05,57,10.90
2008,07,12,05,58,10.90
2008,07,12,05,59,10.90
2008,07,12,06,00,10.90
2008,07,12,06,01,10.90
2008,07,12,06,02,10.90
2008,07,12,06,03,11.00
2008,07,12,06,04,11.00
2008,07,12,06,05,11.00
2008,07,12,06,06,11.00
2008,07,12,06,07,11.10
2008,07,12,06,08,11.10
2008,07,12,06,09,11.10
2008,07,12,06,10,11.10
2008,07,12,06,11,11.10
2008,07,12,06,12,11.10
2008,07,12,06,13,11.10
2008,07,12,06,14,11.20
2008,07,12,06,15,11.20
2008,07,12,06,16,11.20
2008,07,12,06,17,11.20
2008,07,12,06,18,11.20
2008,07,12,06,19,11.20
2008,07,12,06,20,11.20
2008,07,12,06,21,11.20
2008,07,12,06,22,11.30
2008,07,12,06,23,11.30
2008,07,12,06,24,11.30
2008,07,12,06,25,11.40
2008,07,12,06,26,11.40
2008,07,12,06,27,11.50
2008,07,12,06,28,11.50
2008,07,12,06,29,11.60
2008,07,12,06,30,11.60
2008,07,12,06,31,11.60
2008,07,12,06,32,11.70
2008,07,12,06,33,11.70
2008,07,12,06,34,11.80
2008,07,12,06,35,11.90
2008,07,12,06,36,11.90
2008,07,12,06,37,12.00
2008,07,12,06,38,12.00
2008,07,12,06,39,12.10
2008,07,12,06,40,12.10
2008,07,12,06,41,12.20
2008,07,12,06,42,12.30
2008,07,12,06,43,12.30
2008,07,12,06,44,12.40
2008,07,12,06,45,12.40
2008,07,12,06,46,12.50
2008,07,12,06,47,12.60
2008,07,12,06,48,12.70
2008,07,12,06,49,12.80
2008,07,12,06,50,12.80
2008,07,12,06,51,12.90
2008,07,12,06,52,12.90
2008,07,12,06,53,13.00
2008,07,12,06,54,13.10
2008,07,12,06,55,13.10
2008,07,12,06,56,13.20
2008,07,12,06,57,13.30
2008,07,12,06,58,13.40
2008,07,12,06,59,13.50
2008,07,12,07,00,13.60
2008,07,12,07,01,13.70
2008,07,12,07,02,13.80
2008,07,12,07,03,13.80
2008,07,12,07,04,13.90
2008,07,12,07,05,14.00
2008,07,12,07,06,14.00
2008,07,12,07,07,14.20
2008,07,12,07,08,14.40
2008,07,12,07,09,14.60
2008,07,12,07,10,14.70
2008,07,12,07,11,14.90
2008,07,12,07,12,15.10
2008,07,12,07,13,15.40
2008,07,12,07,14,15.70
2008,07,12,07,15,15.90
2008,07,12,07,16,16.00
2008,07,12,07,17,16.20
2008,07,12,07,18,16.30
2008,07,12,07,19,16.30
2008,07,12,07,20,16.40
2008,07,12,07,21,16.50
2008,07,12,07,22,16.60
2008,07,12,07,23,16.70
2008,07,12,07,24,16.80
2008,07,12,07,25,17.00
2008,07,12,07,26,17.00
2008,07,12,07,27,17.20
2008,07,12,07,28,17.30
2008,07,12,07,29,17.30
2008,07,12,07,30,17.40
2008,07,12,07,31,17.40
2008,07,12,07,32,17.40
2008,07,12,07,33,17.50
2008,07,12,07,34,17.60
2008,07,12,07,35,17.60
2008,07,12,07,36,17.70
2008,07,12,07,37,17.70
2008,07,12,07,38,17.80
2008,07,12,07,39,17.90
2008,07,12,07,40,18.00
2008,07,12,07,41,18.20
2008,07,12,07,42,18.30
2008,07,12,07,43,18.40
2008,07,12,07,44,18.50
2008,07,12,07,45,18.70
2008,07,12,07,46,18.80
2008,07,12,07,47,18.90
2008,07,12,07,48,18.90
2008,07,12,07,49,19.00
2008,07,12,07,50,19.10
2008,07,12,07,51,19.20
2008,07,12,07,52,19.40
2008,07,12,07,53,19.60
2008,07,12,07,54,19.60
2008,07,12,07,55,19.70
2008,07,12,07,56,19.70
2008,07,12,07,57,19.70
2008,07,12,07,58,19.70
2008,07,12,07,59,19.60
2008,07,12,08,00,19.60
2008,07,12,08,01,19.60
2008,07,12,08,02,19.60
2008,07,12,08,03,19.50
2008,07,12,08,04,19.50
2008,07,12,08,05,19.50
2008,07,12,08,06,19.40
2008,07,12,08,07,19.40
2008,07,12,08,08,19.40
2008,07,12,08,09,19.40
2008,07,12,08,10,19.30
2008,07,12,08,11,19.30
2008,07,12,08,12,19.30
2008,07,12,08,13,19.30
2008,07,12,08,14,19.30
2008,07,12,08,15,19.30
2008,07,12,08,16,19.30
2008,07,12,08,17,19.30
2008,07,12,08,18,19.30
2008,07,12,08,19,19.40
2008,07,12,08,20,19.40
2008,07,12,08,21,19.50
2008,07,12,08,22,19.60
2008,07,12,08,23,19.60
2008,07,12,08,24,19.60
2008,07,12,08,25,19.60
2008,07,12,08,26,19.60
2008,07,12,08,27,19.60
2008,07,12,08,28,19.70
2008,07,12,08,29,19.70
2008,07,12,08,30,19.70
2008,07,12,08,31,19.60
2008,07,12,08,32,19.60
2008,07,12,08,33,19.60
2008,07,12,08,34,19.60
2008,07,12,08,35,19.70
2008,07,12,08,36,19.70
2008,07,12,08,37,19.70
2008,07,12,08,38,19.70
2008,07,12,08,39,19.70
2008,07,12,08,40,19.70
2008,07,12,08,41,19.90
2008,07,12,08,42,20.00
2008,07,12,08,43,20.20
2008,07,12,08,44,20.30
2008,07,12,08,45,20.50
2008,07,12,08,46,20.60
2008,07,12,08,47,20.70
2008,07,12,08,48,20.90
2008,07,12,08,49,21.00
2008,07,12,08,50,21.20
2008,07,12,08,51,21.20
2008,07,12,08,52,21.30
2008,07,12,08,53,21.40
2008,07,12,08,54,21.40
2008,07,12,08,55,21.40
2008,07,12,08,56,21.30
2008,07,12,08,57,21.20
2008,07,12,08,58,21.10
2008,07,12,08,59,21.00
2008,07,12,09,00,21.10
2008,07,12,09,01,21.10
2008,07,12,09,02,21.10
2008,07,12,09,03,21.10
2008,07,12,09,04,21.10
2008,07,12,09,05,21.20
2008,07,12,09,06,21.20
2008,07,12,09,07,21.30
2008,07,12,09,08,21.30
2008,07,12,09,09,21.40
2008,07,12,09,10,21.40
2008,07,12,09,11,21.30
2008,07,12,09,12,21.30
2008,07,12,09,13,21.20
2008,07,12,09,14,21.20
2008,07,12,09,15,21.40
2008,07,12,09,16,21.40
2008,07,12,09,17,21.50
2008,07,12,09,18,21.60
2008,07,12,09,19,21.60
2008,07,12,09,20,21.70
2008,07,12,09,21,21.70
2008,07,12,09,22,21.80
2008,07,12,09,23,21.80
2008,07,12,09,24,21.90
2008,07,12,09,25,22.00
2008,07,12,09,26,22.00
2008,07,12,09,27,22.10
2008,07,12,09,28,22.00
2008,07,12,09,29,21.80
2008,07,12,09,30,21.70
2008,07,12,09,31,21.60
2008,07,12,09,32,21.50
2008,07,12,09,33,21.30
2008,07,12,09,34,21.30
2008,07,12,09,35,21.30
2008,07,12,09,36,21.40
2008,07,12,09,37,21.40
2008,07,12,09,38,21.50
2008,07,12,09,39,21.60
2008,07,12,09,40,21.60
2008,07,12,09,41,21.60
2008,07,12,09,42,21.70
2008,07,12,09,43,21.70
2008,07,12,09,44,21.70
2008,07,12,09,45,21.80
2008,07,12,09,46,21.80
2008,07,12,09,47,21.80
2008,07,12,09,48,21.80
2008,07,12,09,49,21.70
2008,07,12,09,50,21.70
2008,07,12,09,51,21.60
2008,07,12,09,52,21.60
2008,07,12,09,53,21.60
2008,07,12,09,54,21.60
2008,07,12,09,55,21.70
2008,07,12,09,56,21.70
2008,07,12,09,57,21.70
2008,07,12,09,58,21.70
2008,07,12,09,59,21.80
2008,07,12,10,00,21.80
2008,07,12,10,01,21.90
2008,07,12,10,02,22.00
2008,07,12,10,03,22.10
2008,07,12,10,04,22.10
2008,07,12,10,05,22.20
2008,07,12,10,06,22.20
2008,07,12,10,07,22.20
2008,07,12,10,08,22.20
2008,07,12,10,09,22.20
2008,07,12,10,10,22.20
2008,07,12,10,11,22.20
2008,07,12,10,12,22.10
2008,07,12,10,13,22.00
2008,07,12,10,14,22.10
2008,07,12,10,15,22.20
2008,07,12,10,16,22.20
2008,07,12,10,17,22.20
2008,07,12,10,18,22.20
2008,07,12,10,19,22.10
2008,07,12,10,20,21.90
2008,07,12,10,21,21.80
2008,07,12,10,22,21.60
2008,07,12,10,23,21.40
2008,07,12,10,24,21.30
2008,07,12,10,25,21.30
2008,07,12,10,26,21.40
2008,07,12,10,27,21.40
2008,07,12,10,28,21.40
2008,07,12,10,29,21.50
2008,07,12,10,30,21.60
2008,07,12,10,31,21.70
2008,07,12,10,32,21.80
2008,07,12,10,33,22.00
2008,07,12,10,34,22.20
2008,07,12,10,35,22.40
2008,07,12,10,36,22.50
2008,07,12,10,37,22.40
2008,07,12,10,38,22.30
2008,07,12,10,39,22.20
2008,07,12,10,40,22.20
2008,07,12,10,41,22.10
2008,07,12,10,42,22.20
2008,07,12,10,43,22.20
2008,07,12,10,44,22.20
2008,07,12,10,45,22.30
2008,07,12,10,46,22.50
2008,07,12,10,47,22.50
2008,07,12,10,48,22.40
2008,07,12,10,49,22.50
2008,07,12,10,50,22.50
2008,07,12,10,51,22.60
2008,07,12,10,52,22.70
2008,07,12,10,53,22.80
2008,07,12,10,54,22.80
2008,07,12,10,55,22.80
2008,07,12,10,56,22.80
2008,07,12,10,57,22.90
2008,07,12,10,58,22.90
2008,07,12,10,59,23.00
2008,07,12,11,00,23.10
2008,07,12,11,01,23.10
2008,07,12,11,02,23.10
2008,07,12,11,03,23.10
2008,07,12,11,04,23.10
2008,07,12,11,05,23.10
2008,07,12,11,06,23.10
2008,07,12,11,07,23.10
2008,07,12,11,08,23.30
2008,07,12,11,09,23.40
2008,07,12,11,10,23.40
2008,07,12,11,11,23.50
2008,07,12,11,12,23.60
2008,07,12,11,13,23.50
2008,07,12,11,14,23.50
2008,07,12,11,15,23.40
2008,07,12,11,16,23.40
2008,07,12,11,17,23.40
2008,07,12,11,18,23.50
2008,07,12,11,19,23.60
2008,07,12,11,20,23.70
2008,07,12,11,21,23.80
2008,07,12,11,22,23.80
2008,07,12,11,23,23.80
2008,07,12,11,24,23.70
2008,07,12,11,25,23.70
2008,07,12,11,26,23.60
2008,07,12,11,27,23.50
2008,07,12,11,28,23.30
2008,07,12,11,29,23.00
2008,07,12,11,30,22.80
2008,07,12,11,31,22.70
2008,07,12,11,32,22.60
2008,07,12,11,33,22.40
2008,07,12,11,34,22.40
2008,07,12,11,35,22.30
2008,07,12,11,36,22.30
2008,07,12,11,37,22.30
2008,07,12,11,38,22.40
2008,07,12,11,39,22.30
2008,07,12,11,40,22.50
2008,07,12,11,41,22.60
2008,07,12,11,42,22.70
2008,07,12,11,43,22.80
2008,07,12,11,44,22.90
2008,07,12,11,45,23.00
2008,07,12,11,46,23.10
2008,07,12,11,47,23.10
2008,07,12,11,48,23.00
2008,07,12,11,49,23.00
2008,07,12,11,50,22.90
2008,07,12,11,51,22.80
2008,07,12,11,52,22.90
2008,07,12,11,53,22.90
2008,07,12,11,54,23.00
2008,07,12,11,55,23.10
2008,07,12,11,56,23.30
2008,07,12,11,57,23.40
2008,07,12,11,58,23.50
2008,07,12,11,59,23.60
2008,07,12,12,00,23.50
2008,07,12,12,01,23.50
2008,07,12,12,02,23.60
2008,07,12,12,03,23.70
2008,07,12,12,04,23.70
2008,07,12,12,05,23.60
2008,07,12,12,06,23.60
2008,07,12,12,07,23.60
2008,07,12,12,08,23.60
2008,07,12,12,09,23.60
2008,07,12,12,10,23.60
2008,07,12,12,11,23.60
2008,07,12,12,12,23.70
2008,07,12,12,13,23.80
2008,07,12,12,14,23.90
2008,07,12,12,15,24.00
2008,07,12,12,16,24.10
2008,07,12,12,17,24.10
2008,07,12,12,18,24.20
2008,07,12,12,19,24.20
2008,07,12,12,20,24.20
2008,07,12,12,21,24.20
2008,07,12,12,22,24.20
2008,07,12,12,23,24.20
2008,07,12,12,24,24.20
2008,07,12,12,25,24.20
2008,07,12,12,26,24.20
2008,07,12,12,27,24.10
2008,07,12,12,28,24.10
2008,07,12,12,29,24.00
2008,07,12,12,30,23.90
2008,07,12,12,31,23.70
2008,07,12,12,32,23.60
2008,07,12,12,33,23.60
2008,07,12,12,34,23.70
2008,07,12,12,35,23.90
2008,07,12,12,36,24.00
2008,07,12,12,37,24.10
2008,07,12,12,38,24.10
2008,07,12,12,39,24.10
2008,07,12,12,40,24.20
2008,07,12,12,41,24.20
2008,07,12,12,42,24.20
2008,07,12,12,43,24.20
2008,07,12,12,44,24.10
2008,07,12,12,45,24.10
2008,07,12,12,46,24.20
2008,07,12,12,47,24.20
2008,07,12,12,48,24.10
2008,07,12,12,49,23.90
2008,07,12,12,50,23.80
2008,07,12,12,51,23.70
2008,07,12,12,52,23.70
2008,07,12,12,53,23.70
2008,07,12,12,54,23.70
2008,07,12,12,55,23.70
2008,07,12,12,56,23.70
2008,07,12,12,57,23.70
2008,07,12,12,58,23.80
2008,07,12,12,59,23.90
2008,07,12,13,00,24.00
2008,07,12,13,01,24.00
2008,07,12,13,02,24.10
2008,07,12,13,03,24.20
2008,07,12,13,04,24.30
2008,07,12,13,05,24.30
2008,07,12,13,06,24.30
2008,07,12,13,07,24.20
2008,07,12,13,08,24.10
2008,07,12,13,09,24.10
2008,07,12,13,10,24.10
2008,07,12,13,11,24.10
2008,07,12,13,12,24.00
2008,07,12,13,13,24.00
2008,07,12,13,14,24.00
2008,07,12,13,15,23.90
2008,07,12,13,16,23.90
2008,07,12,13,17,23.80
2008,07,12,13,18,23.80
2008,07,12,13,19,23.70
2008,07,12,13,20,23.70
2008,07,12,13,21,23.70
2008,07,12,13,22,23.60
2008,07,12,13,23,23.50
2008,07,12,13,24,23.50
2008,07,12,13,25,23.40
2008,07,12,13,26,23.40
2008,07,12,13,27,23.40
2008,07,12,13,28,23.30
2008,07,12,13,29,23.30
2008,07,12,13,30,23.20
2008,07,12,13,31,23.20
2008,07,12,13,32,23.10
2008,07,12,13,33,23.20
2008,07,12,13,34,23.20
2008,07,12,13,35,23.30
2008,07,12,13,36,23.30
2008,07,12,13,37,23.30
2008,07,12,13,38,23.30
2008,07,12,13,39,23.30
2008,07,12,13,40,23.30
2008,07,12,13,41,23.30
2008,07,12,13,42,23.30
2008,07,12,13,43,23.20
2008,07,12,13,44,23.20
2008,07,12,13,45,23.30
2008,07,12,13,46,23.30
2008,07,12,13,47,23.50
2008,07,12,13,48,23.60
2008,07,12,13,49,23.70
2008,07,12,13,50,23.90
2008,07,12,13,51,24.00
2008,07,12,13,52,24.10
2008,07,12,13,53,24.20
2008,07,12,13,54,24.30
2008,07,12,13,55,24.40
2008,07,12,13,56,24.50
2008,07,12,13,57,24.50
2008,07,12,13,58,24.50
2008,07,12,13,59,24.40
2008,07,12,14,00,24.20
2008,07,12,14,01,24.10
2008,07,12,14,02,24.20
2008,07,12,14,03,24.20
2008,07,12,14,04,24.20
2008,07,12,14,05,24.20
2008,07,12,14,06,24.30
2008,07,12,14,07,24.50
2008,07,12,14,08,24.50
2008,07,12,14,09,24.40
2008,07,12,14,10,24.30
2008,07,12,14,11,24.30
2008,07,12,14,12,24.30
2008,07,12,14,13,24.20
2008,07,12,14,14,24.10
2008,07,12,14,15,24.10
2008,07,12,14,16,24.10
2008,07,12,14,17,24.10
2008,07,12,14,18,24.10
2008,07,12,14,19,24.10
2008,07,12,14,20,24.10
2008,07,12,14,21,24.10
2008,07,12,14,22,24.00
2008,07,12,14,23,23.90
2008,07,12,14,24,23.90
2008,07,12,14,25,23.90
2008,07,12,14,26,23.90
2008,07,12,14,27,23.90
2008,07,12,14,28,24.00
2008,07,12,14,29,23.90
2008,07,12,14,30,23.80
2008,07,12,14,31,23.60
2008,07,12,14,32,23.40
2008,07,12,14,33,23.30
2008,07,12,14,34,23.20
2008,07,12,14,35,23.30
2008,07,12,14,36,23.30
2008,07,12,14,37,23.50
2008,07,12,14,38,23.70
2008,07,12,14,39,23.90
2008,07,12,14,40,24.00
2008,07,12,14,41,24.10
2008,07,12,14,42,24.30
2008,07,12,14,43,24.40
2008,07,12,14,44,24.50
2008,07,12,14,45,24.60
2008,07,12,14,46,24.70
2008,07,12,14,47,24.70
2008,07,12,14,48,24.70
2008,07,12,14,49,24.70
2008,07,12,14,50,24.70
2008,07,12,14,51,24.70
2008,07,12,14,52,24.70
2008,07,12,14,53,24.60
2008,07,12,14,54,24.50
2008,07,12,14,55,24.40
2008,07,12,14,56,24.30
2008,07,12,14,57,24.30
2008,07,12,14,58,24.40
2008,07,12,14,59,24.40
2008,07,12,15,00,24.50
2008,07,12,15,01,24.60
2008,07,12,15,02,24.50
2008,07,12,15,03,24.50
2008,07,12,15,04,24.60
2008,07,12,15,05,24.70
2008,07,12,15,06,24.80
2008,07,12,15,07,24.90
2008,07,12,15,08,24.90
2008,07,12,15,09,25.00
2008,07,12,15,10,25.00
2008,07,12,15,11,25.10
2008,07,12,15,12,25.20
2008,07,12,15,13,25.30
2008,07,12,15,14,25.40
2008,07,12,15,15,25.40
2008,07,12,15,16,25.50
2008,07,12,15,17,25.70
2008,07,12,15,18,25.80
2008,07,12,15,19,25.90
2008,07,12,15,20,25.90
2008,07,12,15,21,25.90
2008,07,12,15,22,25.90
2008,07,12,15,23,25.90
2008,07,12,15,24,25.90
2008,07,12,15,25,25.90
2008,07,12,15,26,25.90
2008,07,12,15,27,25.90
2008,07,12,15,28,25.90
2008,07,12,15,29,25.80
2008,07,12,15,30,25.90
2008,07,12,15,31,25.90
2008,07,12,15,32,25.90
2008,07,12,15,33,25.90
2008,07,12,15,34,25.90
2008,07,12,15,35,25.90
2008,07,12,15,36,25.80
2008,07,12,15,37,25.80
2008,07,12,15,38,25.70
2008,07,12,15,39,25.70
2008,07,12,15,40,25.60
2008,07,12,15,41,25.50
2008,07,12,15,42,25.50
2008,07,12,15,43,25.60
2008,07,12,15,44,25.70
2008,07,12,15,45,25.70
2008,07,12,15,46,25.80
2008,07,12,15,47,25.90
2008,07,12,15,48,25.90
2008,07,12,15,49,26.00
2008,07,12,15,50,26.10
2008,07,12,15,51,26.10
2008,07,12,15,52,26.20
2008,07,12,15,53,26.20
2008,07,12,15,54,26.20
2008,07,12,15,55,26.20
2008,07,12,15,56,26.20
2008,07,12,15,57,26.30
2008,07,12,15,58,26.30
2008,07,12,15,59,26.30
2008,07,12,16,00,26.20
2008,07,12,16,01,26.30
2008,07,12,16,02,26.30
2008,07,12,16,03,26.30
2008,07,12,16,04,26.30
2008,07,12,16,05,26.40
2008,07,12,16,06,26.40
2008,07,12,16,07,26.40
2008,07,12,16,08,26.50
2008,07,12,16,09,26.60
2008,07,12,16,10,26.70
2008,07,12,16,11,26.80
2008,07,12,16,12,26.80
2008,07,12,16,13,26.80
2008,07,12,16,14,26.80
2008,07,12,16,15,26.90
2008,07,12,16,16,27.00
2008,07,12,16,17,27.10
2008,07,12,16,18,27.10
2008,07,12,16,19,27.10
2008,07,12,16,20,27.20
2008,07,12,16,21,27.20
2008,07,12,16,22,27.10
2008,07,12,16,23,27.00
2008,07,12,16,24,26.90
2008,07,12,16,25,26.80
2008,07,12,16,26,26.70
2008,07,12,16,27,26.70
2008,07,12,16,28,26.70
2008,07,12,16,29,26.80
2008,07,12,16,30,26.80
2008,07,12,16,31,26.80
2008,07,12,16,32,26.80
2008,07,12,16,33,26.80
2008,07,12,16,34,26.80
2008,07,12,16,35,26.80
2008,07,12,16,36,26.80
2008,07,12,16,37,26.80
2008,07,12,16,38,26.80
2008,07,12,16,39,26.70
2008,07,12,16,40,26.60
2008,07,12,16,41,26.40
2008,07,12,16,42,26.20
2008,07,12,16,43,26.20
2008,07,12,16,44,26.20
2008,07,12,16,45,26.10
2008,07,12,16,46,26.10
2008,07,12,16,47,26.10
2008,07,12,16,48,26.10
2008,07,12,16,49,26.00
2008,07,12,16,50,25.90
2008,07,12,16,51,25.90
2008,07,12,16,52,25.90
2008,07,12,16,53,25.90
2008,07,12,16,54,25.90
2008,07,12,16,55,25.90
2008,07,12,16,56,25.90
2008,07,12,16,57,25.90
2008,07,12,16,58,25.90
2008,07,12,16,59,25.90
2008,07,12,17,00,26.00
2008,07,12,17,01,26.10
2008,07,12,17,02,26.20
2008,07,12,17,03,26.20
2008,07,12,17,04,26.30
2008,07,12,17,05,26.30
2008,07,12,17,06,26.30
2008,07,12,17,07,26.30
2008,07,12,17,08,26.30
2008,07,12,17,09,26.30
2008,07,12,17,10,26.20
2008,07,12,17,11,26.20
2008,07,12,17,12,26.20
2008,07,12,17,13,26.20
2008,07,12,17,14,26.10
2008,07,12,17,15,26.00
2008,07,12,17,16,25.80
2008,07,12,17,17,25.70
2008,07,12,17,18,25.60
2008,07,12,17,19,25.60